Shelton, WA

11:53 PM PST on January 16, 2018 (GMT -0800)
Sanderson

Weather History for KSHN - December, 2013

Change the Weather History Date:

Friday, December 20, 2013

  Actual Average Record
Temperature  
Mean Temperature 37 °F -  
Max Temperature 44 °F 42 °F 55 °F (2014)
Min Temperature 30 °F 32 °F 14 °F (1998)
Degree Days  
Heating Degree Days 28    
Moisture  
Dew Point 34 °F    
Average Humidity 94    
Maximum Humidity 100    
Minimum Humidity 87    
Precipitation  
Precipitation 0.31 in - - ()
Sea Level Pressure  
Sea Level Pressure 29.87 in    
Wind  
Wind Speed 3 mph (WSW)    
Max Wind Speed 21 mph    
Max Gust Speed 34 mph    
Visibility 4 miles    
Events Rain , Snow    
Averages and records for this station are not official NWS values.
T = Trace of Precipitation, MM = Missing Value Source: NWS Daily Summary

Daily Weather History Graph

Daily Weather History Graph

Search for Another Location

Airport or City:

Trip Planner

Search our weather history database for the weather conditions in past years. The results will help you decide how hot, cold, wet, or windy it might be!

Date:

Astronomy

Dec. 20, 2013 Rise Set
Actual Time 7:56 AM PST 4:24 PM PST
Civil Twilight 7:20 AM PST 5:00 PM PST
Nautical Twilight 6:41 AM PST 5:39 PM PST
Astronomical Twilight 6:04 AM PST 6:16 PM PST
Moon 8:02 PM PST (12/20) 9:42 AM PST (12/20)
Length of Visible Light 9h 40m
Length of Day
8h 28m
Waning Gibbous, 90% of the Moon is Illuminated
Dec 20
Waning Gibbous
Dec 25
Last Quarter
Jan 1
New
Jan 7
First Quarter
Jan 15
Full

Hourly Weather History & Observations

Time (PST) Temp. Windchill Dew Point Humidity Pressure Visibility Wind Dir Wind Speed Gust Speed Precip Events Conditions
12:53 AM 30.9 °F - 28.9 °F 92% 30.18 in 10.0 mi Calm Calm - N/A   Mostly Cloudy
1:53 AM 32.0 °F - 28.9 °F 88% 30.16 in 10.0 mi Calm Calm - N/A   Overcast
2:53 AM 32.0 °F - 30.0 °F 92% 30.14 in 10.0 mi Calm Calm - N/A   Overcast
3:53 AM 30.9 °F - 30.0 °F 96% 30.12 in 4.0 mi Calm Calm - 0.00 in Snow Light Snow
4:01 AM 32.0 °F - 30.0 °F 92% 30.10 in 2.0 mi Calm Calm - 0.00 in Snow Light Snow
4:11 AM 32.0 °F - 30.0 °F 92% 30.09 in 1.8 mi Calm Calm - 0.01 in Snow Light Snow
4:25 AM 30.9 °F - 30.0 °F 96% 30.08 in 2.5 mi Calm Calm - 0.01 in Snow Light Snow
4:33 AM 30.9 °F - 28.9 °F 92% 30.08 in 3.0 mi Calm Calm - 0.01 in Snow Light Snow
4:53 AM 30.9 °F - 28.9 °F 92% 30.10 in 2.5 mi Calm Calm - 0.01 in Snow Light Snow
5:09 AM 30.9 °F - 30.0 °F 96% 30.08 in 1.8 mi Calm Calm - 0.01 in Snow Light Snow
5:35 AM 30.9 °F - 28.9 °F 92% 30.07 in 2.0 mi Calm Calm - 0.02 in Snow Light Snow
5:53 AM 30.9 °F - 30.0 °F 96% 30.08 in 1.8 mi Calm Calm - 0.02 in Snow Light Snow
6:45 AM 30.9 °F - 30.0 °F 96% 30.04 in 2.0 mi Calm Calm - 0.03 in Snow Light Snow
6:50 AM 30.2 °F - 30.2 °F 100% 30.03 in 1.8 mi Calm Calm - 0.03 in Snow Light Snow
6:53 AM 30.9 °F - 28.9 °F 92% 30.05 in 2.0 mi Calm Calm - 0.03 in Snow Light Snow
7:01 AM 30.9 °F - 28.9 °F 92% 30.03 in 3.0 mi Calm Calm - 0.00 in Snow Light Snow
7:20 AM 30.9 °F - 28.9 °F 92% 30.04 in 1.8 mi Calm Calm - 0.01 in Snow Light Snow
7:46 AM 30.9 °F - 30.0 °F 96% 30.00 in 2.5 mi Calm Calm - 0.02 in   Overcast
7:53 AM 30.9 °F - 30.0 °F 96% 30.02 in 3.0 mi Calm Calm - 0.02 in   Overcast
8:08 AM 30.9 °F 27.5 °F 30.0 °F 96% 29.99 in 3.0 mi SSE 3.5 mph - 0.00 in Rain Light Freezing Rain
8:17 AM 30.9 °F - 30.0 °F 96% 29.99 in 2.0 mi Calm Calm - 0.00 in Rain Light Freezing Rain
8:28 AM 32.0 °F - 30.0 °F 92% 29.99 in 1.5 mi Calm Calm - 0.01 in Rain Light Freezing Rain
8:53 AM 30.9 °F - 30.9 °F 100% 29.99 in 1.5 mi Calm Calm - 0.01 in Rain Light Freezing Rain
9:44 AM 32.0 °F - 30.9 °F 96% 29.94 in 1.5 mi Calm Calm - 0.02 in Rain Light Freezing Rain
9:53 AM 32.0 °F - 30.9 °F 96% 29.94 in 1.2 mi Calm Calm - 0.03 in Rain Light Freezing Rain
10:06 AM 32.0 °F - 30.9 °F 96% 29.91 in 0.8 mi Calm Calm - 0.00 in Rain Light Freezing Rain
10:16 AM 32.0 °F - 30.9 °F 96% 29.91 in 1.0 mi Calm Calm - 0.01 in   Mist
10:40 AM 32.0 °F 28.7 °F 30.9 °F 96% 29.88 in 1.2 mi East 3.5 mph - 0.02 in   Overcast
10:53 AM 33.1 °F - 32.0 °F 96% 29.90 in 1.0 mi Calm Calm - 0.03 in   Mist
11:20 AM 32.0 °F 26.4 °F 30.9 °F 96% 29.86 in 1.0 mi ESE 5.8 mph - 0.02 in   Overcast
11:31 AM 32.0 °F 27.5 °F 30.9 °F 96% 29.84 in 1.0 mi SE 4.6 mph - 0.02 in   Overcast
11:53 AM 32.0 °F 26.4 °F 30.9 °F 96% 29.84 in 1.2 mi South 5.8 mph - 0.04 in   Overcast
12:02 PM 32.0 °F 27.5 °F 32.0 °F 100% 29.83 in 3.0 mi South 4.6 mph - 0.01 in   Overcast
12:13 PM 33.1 °F 27.7 °F 30.9 °F 92% 29.84 in 2.0 mi WSW 5.8 mph - 0.02 in   Overcast
12:21 PM 33.1 °F 26.9 °F 32.0 °F 96% 29.80 in 1.5 mi South 6.9 mph - 0.05 in Rain Rain
12:29 PM 33.1 °F 26.1 °F 32.0 °F 96% 29.79 in 3.0 mi SSW 8.1 mph - 0.06 in Rain Light Rain
12:53 PM 34.0 °F 28.0 °F 32.0 °F 92% 29.81 in 4.0 mi SW 6.9 mph - 0.07 in Rain Light Rain
1:13 PM 34.0 °F 26.0 °F 32.0 °F 92% 29.78 in 4.0 mi SW 10.4 mph - 0.01 in Rain Light Rain
1:41 PM 35.1 °F 29.3 °F 33.1 °F 92% 29.74 in 8.0 mi West 6.9 mph - 0.03 in Rain Light Rain
1:46 PM 35.1 °F 27.9 °F 33.1 °F 92% 29.73 in 10.0 mi West 9.2 mph - 0.03 in Rain Light Rain
1:53 PM 35.1 °F 27.9 °F 33.1 °F 92% 29.75 in 5.0 mi West 9.2 mph - 0.04 in Rain Light Rain
2:04 PM 36.0 °F 28.5 °F 34.0 °F 93% 29.72 in 3.0 mi West 10.4 mph - 0.00 in Rain Light Rain
2:30 PM 35.1 °F 27.4 °F 34.0 °F 96% 29.71 in 2.5 mi West 10.4 mph - 0.00 in   Overcast
2:38 PM 36.0 °F 28.5 °F 34.0 °F 93% 29.71 in 1.8 mi West 10.4 mph - 0.00 in   Overcast
2:51 PM 35.6 °F 29.2 °F 33.8 °F 93% 29.71 in 2.0 mi West 8.1 mph - 0.00 in   Overcast
2:53 PM 36.0 °F 28.5 °F 34.0 °F 93% 29.73 in 2.0 mi West 10.4 mph - 0.00 in   Overcast
3:01 PM 36.0 °F 28.5 °F 34.0 °F 93% 29.71 in 1.8 mi West 10.4 mph - 0.01 in   Overcast
3:29 PM 37.0 °F 28.5 °F 36.0 °F 96% 29.69 in 1.8 mi SW 13.8 mph - 0.01 in   Overcast
3:53 PM 37.9 °F 29.2 °F 37.0 °F 97% 29.70 in 1.0 mi SW 15.0 mph - 0.01 in   Overcast
4:03 PM 39.9 °F 30.8 °F 39.0 °F 97% 29.68 in 2.0 mi SW 18.4 mph - N/A   Overcast
4:25 PM 42.1 °F 33.1 °F 41.0 °F 96% 29.67 in 4.0 mi SW 20.7 mph - N/A   Overcast
4:51 PM 42.8 °F 34.5 °F 41.0 °F 93% 29.68 in 10.0 mi WSW 18.4 mph 34.5 mph N/A   Overcast
4:53 PM 43.0 °F 34.5 °F 41.0 °F 93% 29.70 in 10.0 mi WSW 19.6 mph 34.5 mph N/A   Overcast
5:03 PM 43.0 °F 34.8 °F 41.0 °F 93% 29.68 in 10.0 mi WSW 18.4 mph 25.3 mph N/A   Mostly Cloudy
5:49 PM 44.6 °F 37.2 °F 41.0 °F 87% 29.68 in 10.0 mi WSW 17.3 mph 26.5 mph N/A   Scattered Clouds
5:53 PM 44.1 °F 37.4 °F 42.1 °F 93% 29.70 in 10.0 mi WSW 13.8 mph 26.5 mph N/A   Scattered Clouds
6:12 PM 44.1 °F 37.7 °F 42.1 °F 93% 29.68 in 10.0 mi SW 12.7 mph 21.9 mph N/A   Mostly Cloudy
6:53 PM 44.1 °F 41.5 °F 42.1 °F 93% 29.71 in 10.0 mi Variable 4.6 mph - N/A   Overcast
7:53 PM 42.1 °F 38.4 °F 39.9 °F 92% 29.74 in 10.0 mi NNW 5.8 mph - N/A   Overcast
8:38 PM 39.0 °F 35.7 °F 37.9 °F 96% 29.74 in 4.0 mi NW 4.6 mph - N/A   Overcast
8:53 PM 39.0 °F 36.8 °F 37.9 °F 96% 29.77 in 5.0 mi NNW 3.5 mph - N/A   Overcast
9:53 PM 39.0 °F 36.8 °F 37.9 °F 96% 29.79 in 10.0 mi NNW 3.5 mph - N/A   Overcast
10:22 PM 39.0 °F - 37.9 °F 96% 29.79 in 10.0 mi Calm Calm - N/A   Overcast
10:34 PM 39.0 °F - 37.0 °F 93% 29.79 in 10.0 mi Calm Calm - N/A   Overcast
10:53 PM 39.0 °F - 37.9 °F 96% 29.81 in 10.0 mi Calm Calm - N/A   Overcast
11:16 PM 39.0 °F 35.7 °F 37.9 °F 96% 29.81 in 10.0 mi North 4.6 mph - N/A   Overcast
11:40 PM 39.0 °F 35.7 °F 37.9 °F 96% 29.82 in 10.0 mi NW 4.6 mph - N/A   Overcast
11:53 PM 39.0 °F 35.7 °F 37.9 °F 96% 29.84 in 10.0 mi WNW 4.6 mph - N/A   Overcast